Regional Weather Roundup
Issued by NWS

Home | Current Version | Previous Version | Graphics & Text | Print | Product List | Glossary On
Versions: 1 2 3 4 5 6 7 8 9 10 11 12 13 14 15 16 17 18 19 20 21 22 23 24 25 26 27 28 29 30 31 32 33 34 35 36 37 38 39 40 41 42 43 44 45 46 47 48 49
000
ASUS45 KBOU 312307
RWRCO

WEATHER ROUNDUP FOR COLORADO
NATIONAL WEATHER SERVICE DENVER/BOULDER CO
500 PM MDT THU JUL 31 2014

NOTE: "FAIR" INDICATES FEW OR NO CLOUDS BELOW 12000 FEET WITH NO
SIGNIFICANT WEATHER AND/OR OBSTRUCTIONS TO VISIBILITY.

COZ001>005-013-030-031-010000-
...NORTHWEST COLORADO...

CITY           SKY/WX    TMP DP  RH WIND       PRES   REMARKS
CRAIG          MOSUNNY   71  49  45 VRB3      30.21F
HAYDEN         PTSUNNY   72  46  40 NE9       30.24F
MEEKER         PTSUNNY   77  49  37 NE13      30.22F
MOUNT WERNER   NOT AVBL
STEAMBOAT SPGS CLOUDY    69  50  49 NE10G16   30.27S
WALDEN         MOSUNNY   68  37  32 N9        30.36S
$$

COZ006>008-011-010000-
...WEST CENTRAL VALLEYS...

CITY           SKY/WX    TMP DP  RH WIND       PRES   REMARKS
GRAND JUNCTION MOSUNNY   84  50  30 W10       30.07F
MONTROSE       MOSUNNY   83  52  34 W8        30.16F
EAGLE          PTSUNNY   72  54  53 SW6       30.26F
RIFLE          MOSUNNY   85  45  24 W13       30.11F
DELTA          MOSUNNY   91  43  19 W10G25    30.09F
NUCLA          MOSUNNY   82  45  26 NW6       30.19S
$$

COZ017>023-064>068-010000-
...SOUTHWEST COLORADO...

CITY           SKY/WX    TMP DP  RH WIND       PRES   REMARKS
DURANGO        PTSUNNY   78  50  37 N8        30.22F
CORTEZ         SUNNY     84  49  29 MISG      30.15F
PAGOSA SPRINGS PTSUNNY   65  53  65 CALM      30.31F
TELLURIDE      CLOUDY    70  45  40 W9G17     30.40S
WOLF CREEK PAS NOT AVBL
$$

COZ009-010-012-014-032>034-037-058>063-010000-
...CENTRAL COLORADO...

CITY           SKY/WX    TMP DP  RH WIND       PRES   REMARKS
ASPEN          PTSUNNY   73  46  38 VRB5      30.29F
BUENA VISTA    CLOUDY    63  52  67 SE9       30.39R
COPPER MTN     TSTM      46  41  81 W13G20    30.66R
BERTHOUD PASS  FOG       39  37  93 MISG      30.68F VSB<1/4
COTTONWOOD PAS PTSUNNY   59  50  72 CALM      30.51R
GUNNISON       MOSUNNY   72  46  40 SE5       30.31S
KREMMLING      CLOUDY    70  46  43 N7        30.32F
LEADVILLE      LGT RAIN  48  47  96 NE5         N/A  FOG
MONARCH PASS   CLOUDY    45  43  93 NE21      30.72S VSB<1/4
SALIDA         PTSUNNY   62  56  83 E10       30.44S
SUNLIGHT       PTSUNNY   59  48  67 CALM      30.55S
WILKERSON PASS CLOUDY    46  45  93 NE8       30.63S
$$

COZ069>075-010000-
...SAN LUIS VALLEY/SANGRE DE CRISTO MOUNTAINS...

CITY           SKY/WX    TMP DP  RH WIND       PRES   REMARKS
ALAMOSA        CLOUDY    61  54  77 S7        30.31F
LA VETA PASS   TSTM      46  46 100 E12       30.54R VSB<1/4
SAGUACHE       PTSUNNY   64  54  68 E10       30.35R
$$

COZ035-036-038>040-010000-
...NORTHERN COLORADO FRONT RANGE...

CITY           SKY/WX    TMP DP  RH WIND       PRES   REMARKS
DENVER INTL AP PTSUNNY   78  46  32 NE5       30.25F
DMNS CITY PARK   N/A     74  49  41 SW5       30.25S
AURORA         PTSUNNY   73  51  46 CALM      30.28F
FRONT RANGE AP NOT AVBL
ERIE MUNI ARPT PTSUNNY   78  46  32 E8        30.23F
BOULDER MUN AP PTSUNNY   77  46  33 CALM      30.24F
CENTENNIAL     PTSUNNY   72  50  45 N6        30.28F
BROOMFIELD     PTSUNNY   75  43  31 SW3       30.28F
FORT COLLINS   SUNNY     81  48  32 E7        30.22F
LONGMONT       SUNNY     81  45  28 E5        30.25S
$$

COZ041-046-047-076>085-087-088-010000-
...PIKES PEAK/PALMER DIVIDE AND SOUTHERN FOOTHILLS...

CITY           SKY/WX    TMP DP  RH WIND       PRES   REMARKS
COLO. SPRINGS  CLOUDY    66  54  65 SW5       30.33F
A. F. ACADEMY  MOSUNNY   64  55  74 S3        30.34S
ELLICOTT       CLOUDY    67  52  58 VRB5      30.31F
FALCON         CLOUDY    64  53  67 SW5       30.36S
FORT CARSON    CLOUDY    65  56  73 SW5       30.31F
LIMON          MOSUNNY   72  47  40 CALM      30.26F
MONUMENT HILL  PTSUNNY   63  46  55 CALM      30.35F
TRINIDAD       CLOUDY    69  51  52 N7        30.30R
$$

COZ042>045-048>051-090-091-010000-
...NORTHEAST COLORADO...

CITY           SKY/WX    TMP DP  RH WIND       PRES   REMARKS
GREELEY ARPT   NOT AVBL
AKRON          SUNNY     79  44  28 NW3       30.20F
BURLINGTON     SUNNY     78  46  32 SW6       30.18F
WRAY             N/A     86  43  21 CALM      30.14F
STERLING       SUNNY     84  54  34 CALM      30.15F
HOLYOKE        SUNNY     86  50  28 W5        30.14S
FORT MORGAN    SUNNY     81  44  27 SE5       30.21F
$$

COZ086-089-092>099-010000-
...SOUTHEAST COLORADO...

CITY           SKY/WX    TMP DP  RH WIND       PRES   REMARKS
PUEBLO         CLOUDY    72  52  49 S7        30.24F
LA JUNTA       MOSUNNY   77  52  41 CALM      30.21S
LAMAR          PTSUNNY   80  51  36 CALM      30.17F
SPRINGFIELD      N/A     75  50  41 E8        30.20F
$$



USA.gov is the U.S. government's official web portal to all federal, state and local government web resources and services.